This demonstration page uses our WeatherBlox Daily Observations layout. Learn more.

Left ArrowRight Arrow

44.89941, -97.11507

Hourly Observations for November 25, 2020

Temp ( °F °C ) Dew Point ( °F °C ) Humidity (%) Winds ( mph kmh ) Pressure ( in mb ) Visibility ( mi km ) Precip ( " mm )
12:53 am 00:53 Cloudy with Mist and Fog 27 -2.8 26 -3.3 96 96 NE 6 9 29.96 1015 6 10 0.00 0.00
1:53 am 01:53 Cloudy 27 -2.8 25 -3.9 92 92 NNE 7 11 29.96 1015 7 11 0.00 0.00
2:53 am 02:53 Cloudy 27 -2.8 25 -3.9 92 92 N 6 9 29.96 1015 8 13 0.00 0.00
3:53 am 03:53 Cloudy 27 -2.8 25 -3.9 92 92 N 7 11 29.95 1014 7 11 0.00 0.00
4:53 am 04:53 Cloudy 27 -2.8 25 -3.9 92 92 N 6 9 29.96 1015 7 11 0.00 0.00
5:53 am 05:53 Cloudy 27 -2.8 25 -3.9 92 92 Calm 29.97 1015 7 11 0.00 0.00
6:53 am 06:53 Cloudy 27 -2.8 25 -3.9 92 92 S 3 6 29.96 1015 7 11 0.00 0.00
7:53 am 07:53 Cloudy 27 -2.8 24 -4.4 89 89 Calm 29.97 1015 8 13 0.00 0.00
8:53 am 08:53 Cloudy 27 -2.8 25 -3.9 92 92 Calm 29.96 1015 7 11 0.00 0.00
9:53 am 09:53 Cloudy 27 -2.8 24 -4.4 89 89 Calm 29.97 1015 7 11 0.00 0.00
10:53 am 10:53 Cloudy 28 -2.2 25 -3.9 88 88 S 8 13 29.96 1015 7 11 0.00 0.00
11:53 am 11:53 Cloudy 28 -2.2 25 -3.9 88 88 SSW 10 17 29.94 1014 8 13 0.00 0.00
12:53 pm 12:53 Cloudy 30 -1.1 26 -3.3 85 85 S 9 15 29.90 1013 9 14 0.00 0.00
1:48 pm 13:48 Partly Cloudy 32 0 27 -3 80 80 S 9 15 29.89 1012 10 16 0.00 0.00
1:53 pm 13:53 Mostly Sunny 32 0 26 -3.3 79 79 S 9 15 29.87 1012 10 16 0.00 0.00
2:53 pm 14:53 Sunny 32 0 26 -3.3 79 79 S 12 19 29.86 1011 10 16 0.00 0.00
3:53 pm 15:53 Sunny 31 -0.6 26 -3.3 82 82 S 9 15 29.85 1011 10 16 0.00 0.00
4:53 pm 16:53 Clear 28 -2.2 25 -3.9 88 88 S 9 15 29.85 1011 9 14 0.00 0.00
6:12 pm 18:12 Partly Cloudy 27 -2.8 25 -3.9 92 92 SSE 14 22 29.87 1011 7 11 0.00 0.00
6:21 pm 18:21 Mostly Cloudy 27 -2.8 26 -3.3 96 96 SSE 14 22 29.88 1012 7 11 0.00 0.00
6:30 pm 18:30 Cloudy with Mist and Fog 27 -2.8 26 -3.3 96 96 S 14 22 29.88 1012 6 10 0.00 0.00
6:53 pm 18:53 Cloudy with Mist and Fog 26 -3.3 26 -3.3 100 100 SSE 13 20 29.84 1011 5 8 0.00 0.00
7:53 pm 19:53 Cloudy with Mist and Fog 26 -3.3 26 -3.3 100 100 SSE 12 19 29.84 1011 3 4 0.00 0.00
8:03 pm 20:03 Cloudy with Mist and Fog 26 -3.3 26 -3.3 100 100 S 14 22 29.88 1012 3 5 0.00 0.00
8:09 pm 20:09 Cloudy with Mist and Fog 25 -3.9 25 -3.9 100 100 SSE 14 22 29.89 1012 2 3 0.00 0.00
8:18 pm 20:18 Cloudy with Mist and Fog 26 -3.3 25 -3.9 96 96 S 13 20 29.88 1012 1 2 0.00 0.00
8:32 pm 20:32 Cloudy with Mist and Fog 25 -3.9 25 -3.9 100 100 S 10 17 29.89 1012 1 1 0.00 0.00
8:53 pm 20:53 Cloudy with Mist and Fog 26 -3.3 26 -3.3 100 100 SSE 13 20 29.85 1011 1 2 0.00 0.00
9:17 pm 21:17 Cloudy with Mist and Fog 25 -3.9 25 -3.9 100 100 S 12 19 29.89 1012 1 1 0.00 0.00
9:25 pm 21:25 Cloudy with Mist and Fog 25 -3.9 25 -3.9 100 100 SSE 13 20 29.88 1012 2 2 0.00 0.00
9:31 pm 21:31 Cloudy with Mist and Fog 25 -3.9 24 -4.4 96 96 S 15 24 29.88 1012 1 1 0.00 0.00
9:49 pm 21:49 Cloudy with Mist and Fog 25 -4 25 -4 100 100 SSE 13 20 29.88 1012 1 2 0.00 0.00
9:53 pm 21:53 Cloudy with Mist and Fog 25 -3.9 24 -4.4 96 96 SSE 13 20 29.84 1010 1 1 0.00 0.00
10:18 pm 22:18 Cloudy with Mist and Fog 25 -3.9 25 -3.9 100 100 SSE 13 20 29.87 1011 1 2 0.00 0.00
10:26 pm 22:26 Cloudy with Mist and Fog 24 -4.4 24 -4.4 100 100 SSE 13 20 29.87 1012 2 3 0.00 0.00
10:33 pm 22:33 Cloudy with Mist and Fog 25 -3.9 24 -4.4 96 96 SSE 13 20 29.87 1011 2 3 0.00 0.00
10:38 pm 22:38 Cloudy with Mist and Fog 24 -4.4 24 -4.4 100 100 SSE 13 20 29.87 1012 1 2 0.00 0.00
10:53 pm 22:53 Cloudy with Mist and Fog 24 -4.4 24 -4.4 100 100 SSE 13 20 29.83 1010 1 1 0.00 0.00
11:02 pm 23:02 Cloudy with Mist and Fog 24 -4.4 24 -4.4 100 100 SSE 9 15 29.87 1012 2 2 0.00 0.00
11:08 pm 23:08 Cloudy with Mist and Fog 24 -4.4 24 -4.4 100 100 SSE 10 17 29.87 1012 3 5 0.00 0.00
11:18 pm 23:18 Mostly Cloudy with Mist and Fog 24 -4.4 23 -5 96 96 SSE 12 19 29.86 1011 2 2 0.00 0.00
11:21 pm 23:21 Cloudy with Mist and Fog 24 -4.4 24 -4.4 100 100 SSE 10 17 29.86 1011 1 1 0.00 0.00
11:39 pm 23:39 Cloudy with Mist and Fog 24 -4.4 23 -5 96 96 SSE 10 17 29.86 1011 1 2 0.00 0.00
11:53 pm 23:53 Cloudy with Mist and Fog 24 -4.4 24 -4.4 100 100 SSE 9 15 29.81 1010 2 2 0.00 0.00
11:58 pm 23:58 Cloudy with Mist and Fog 24 -4.4 24 -4.4 100 100 SSE 10 17 29.85 1011 3 5 0.00 0.00

Powered by AerisWeather